Time,TemperatureF,DewpointF,PressureIn,WindDirection,WindDirectionDegrees,WindSpeedMPH,WindSpeedGustMPH,Humidity,HourlyPrecipIn,Conditions,Clouds,dailyrainin,SoftwareType,DateUTC
2013-01-02 00:00:00,8.0,0.0,29.95,SE,135,1.0,6.0,73,0.00,,,0.00,Rainwise IP-100,2013-01-02 05:00:00,
2013-01-02 00:05:00,9.0,4.0,29.95,WNW,292,12.0,12.0,73,0.00,,,0.00,Rainwise IP-100,2013-01-02 05:05:00,
2013-01-02 00:10:00,9.0,4.0,29.94,West,270,6.0,13.0,72,0.00,,,0.00,Rainwise IP-100,2013-01-02 05:10:00,
2013-01-02 00:15:00,10.0,4.0,29.94,SW,225,7.0,14.0,70,0.00,,,0.00,Rainwise IP-100,2013-01-02 05:15:00,
2013-01-02 00:20:00,9.0,4.0,29.94,WNW,292,5.0,11.0,70,0.00,,,0.00,Rainwise IP-100,2013-01-02 05:20:00,
2013-01-02 00:25:00,9.0,4.0,29.94,South,180,0.0,9.0,71,0.00,,,0.00,Rainwise IP-100,2013-01-02 05:25:00,
2013-01-02 00:30:00,8.0,0.0,29.94,SSE,157,6.0,6.0,73,0.00,,,0.00,Rainwise IP-100,2013-01-02 05:30:00,
2013-01-02 00:35:00,10.0,4.0,29.94,WNW,292,11.0,15.0,71,0.00,,,0.00,Rainwise IP-100,2013-01-02 05:35:00,
2013-01-02 00:40:00,10.0,4.0,29.94,WNW,292,6.0,15.0,70,0.00,,,0.00,Rainwise IP-100,2013-01-02 05:40:00,
2013-01-02 00:45:00,10.0,4.0,29.94,WNW,292,15.0,17.0,72,0.00,,,0.00,Rainwise IP-100,2013-01-02 05:45:00,
2013-01-02 00:50:00,10.0,4.0,29.94,NW,315,10.0,15.0,72,0.00,,,0.00,Rainwise IP-100,2013-01-02 05:50:00,
2013-01-02 00:55:00,10.0,4.0,29.94,WNW,292,13.0,15.0,72,0.00,,,0.00,Rainwise IP-100,2013-01-02 05:55:00,
2013-01-02 01:00:00,10.0,4.0,29.94,NW,315,7.0,18.0,73,0.00,,,0.00,Rainwise IP-100,2013-01-02 06:00:00,
2013-01-02 01:05:00,10.0,4.0,29.94,ENE,67,0.0,11.0,72,0.00,,,0.00,Rainwise IP-100,2013-01-02 06:05:00,
2013-01-02 01:10:00,10.0,4.0,29.94,NW,315,11.0,15.0,72,0.00,,,0.00,Rainwise IP-100,2013-01-02 06:10:00,
2013-01-02 01:15:00,10.0,4.0,29.94,SW,225,7.0,17.0,70,0.00,,,0.00,Rainwise IP-100,2013-01-02 06:15:00,
2013-01-02 01:20:00,10.0,4.0,29.93,NNW,337,11.0,13.0,71,0.00,,,0.00,Rainwise IP-100,2013-01-02 06:20:00,
2013-01-02 01:25:00,10.0,4.0,29.93,WNW,292,4.0,12.0,71,0.00,,,0.00,Rainwise IP-100,2013-01-02 06:25:00,
2013-01-02 01:30:00,10.0,4.0,29.93,SW,225,6.0,13.0,69,0.00,,,0.00,Rainwise IP-100,2013-01-02 06:30:00,
2013-01-02 01:35:00,10.0,4.0,29.93,NW,315,10.0,14.0,68,0.00,,,0.00,Rainwise IP-100,2013-01-02 06:35:00,
2013-01-02 01:40:00,10.0,4.0,29.92,WSW,247,2.0,12.0,69,0.00,,,0.00,Rainwise IP-100,2013-01-02 06:40:00,
2013-01-02 01:45:00,10.0,4.0,29.92,West,270,9.0,12.0,69,0.00,,,0.00,Rainwise IP-100,2013-01-02 06:45:00,
2013-01-02 01:50:00,10.0,4.0,29.94,NW,315,9.0,12.0,68,0.00,,,0.00,Rainwise IP-100,2013-01-02 06:50:00,
2013-01-02 01:55:00,10.0,4.0,29.94,NW,315,6.0,11.0,69,0.00,,,0.00,Rainwise IP-100,2013-01-02 06:55:00,
2013-01-02 02:00:00,10.0,4.0,29.94,West,270,12.0,12.0,69,0.00,,,0.00,Rainwise IP-100,2013-01-02 07:00:00,
2013-01-02 02:05:00,10.0,4.0,29.94,NW,315,6.0,16.0,69,0.00,,,0.00,Rainwise IP-100,2013-01-02 07:05:00,
2013-01-02 02:10:00,10.0,4.0,29.94,WNW,292,6.0,12.0,70,0.00,,,0.00,Rainwise IP-100,2013-01-02 07:10:00,
2013-01-02 02:15:00,10.0,4.0,29.94,WNW,292,7.0,10.0,71,0.00,,,0.00,Rainwise IP-100,2013-01-02 07:15:00,
2013-01-02 02:20:00,10.0,4.0,29.94,NW,315,7.0,10.0,71,0.00,,,0.00,Rainwise IP-100,2013-01-02 07:20:00,
2013-01-02 02:25:00,10.0,4.0,29.94,NW,315,7.0,12.0,72,0.00,,,0.00,Rainwise IP-100,2013-01-02 07:25:00,
2013-01-02 02:30:00,10.0,4.0,29.94,NW,315,9.0,14.0,72,0.00,,,0.00,Rainwise IP-100,2013-01-02 07:30:00,
2013-01-02 02:35:00,10.0,4.0,29.94,NNW,337,9.0,13.0,72,0.00,,,0.00,Rainwise IP-100,2013-01-02 07:35:00,
2013-01-02 02:40:00,10.0,4.0,29.94,WNW,292,8.0,12.0,73,0.00,,,0.00,Rainwise IP-100,2013-01-02 07:40:00,
2013-01-02 02:45:00,10.0,4.0,29.94,NW,315,8.0,12.0,73,0.00,,,0.00,Rainwise IP-100,2013-01-02 07:45:00,
2013-01-02 02:50:00,10.0,4.0,29.94,West,270,6.0,13.0,73,0.00,,,0.00,Rainwise IP-100,2013-01-02 07:50:00,
2013-01-02 02:55:00,10.0,4.0,29.94,West,270,8.0,12.0,74,0.00,,,0.00,Rainwise IP-100,2013-01-02 07:55:00,
2013-01-02 03:00:00,10.0,4.0,29.94,West,270,7.0,10.0,74,0.00,,,0.00,Rainwise IP-100,2013-01-02 08:00:00,
2013-01-02 03:05:00,9.0,4.0,29.94,NW,315,10.0,13.0,74,0.00,,,0.00,Rainwise IP-100,2013-01-02 08:05:00,
2013-01-02 03:10:00,10.0,4.0,29.94,NW,315,8.0,10.0,75,0.00,,,0.00,Rainwise IP-100,2013-01-02 08:10:00,
2013-01-02 03:15:00,10.0,4.0,29.94,WNW,292,6.0,15.0,75,0.00,,,0.00,Rainwise IP-100,2013-01-02 08:15:00,
2013-01-02 03:20:00,10.0,4.0,29.94,WNW,292,5.0,13.0,75,0.00,,,0.00,Rainwise IP-100,2013-01-02 08:20:00,
2013-01-02 03:25:00,10.0,4.0,29.94,NW,315,3.0,9.0,76,0.00,,,0.00,Rainwise IP-100,2013-01-02 08:25:00,
2013-01-02 03:30:00,10.0,4.0,29.93,NW,315,5.0,12.0,76,0.00,,,0.00,Rainwise IP-100,2013-01-02 08:30:00,
2013-01-02 03:35:00,10.0,4.0,29.93,NW,315,3.0,8.0,76,0.00,,,0.00,Rainwise IP-100,2013-01-02 08:35:00,
2013-01-02 03:40:00,10.0,4.0,29.93,NW,315,6.0,8.0,76,0.00,,,0.00,Rainwise IP-100,2013-01-02 08:40:00,
2013-01-02 03:45:00,10.0,4.0,29.93,NNW,337,0.0,7.0,77,0.00,,,0.00,Rainwise IP-100,2013-01-02 08:45:00,
2013-01-02 03:50:00,10.0,4.0,29.92,NNW,337,2.0,0.0,78,0.00,,,0.00,Rainwise IP-100,2013-01-02 08:50:00,
2013-01-02 03:55:00,9.0,4.0,29.92,SSE,157,5.0,6.0,78,0.00,,,0.00,Rainwise IP-100,2013-01-02 08:55:00,
2013-01-02 03:56:00,9.0,4.0,29.92,SSE,157,5.0,6.0,78,0.00,,,0.00,Rainwise IP-100,2013-01-02 08:56:00,
2013-01-02 03:58:00,9.0,4.0,29.92,SSE,157,5.0,6.0,78,0.00,,,0.00,Rainwise IP-100,2013-01-02 08:58:00,
2013-01-02 04:03:00,9.0,4.0,29.92,SSE,157,5.0,5.0,78,0.00,,,0.00,Rainwise IP-100,2013-01-02 09:03:00,
2013-01-02 04:08:00,9.0,8.0,29.92,South,180,7.0,8.0,83,0.00,,,0.00,Rainwise IP-100,2013-01-02 09:08:00,
2013-01-02 04:13:00,8.0,4.0,29.92,SSE,157,6.0,9.0,85,0.00,,,0.00,Rainwise IP-100,2013-01-02 09:13:00,
2013-01-02 04:18:00,8.0,4.0,29.92,SSW,202,7.0,11.0,85,0.00,,,0.00,Rainwise IP-100,2013-01-02 09:18:00,
2013-01-02 04:23:00,8.0,4.0,29.92,SSW,202,7.0,10.0,85,0.00,,,0.00,Rainwise IP-100,2013-01-02 09:23:00,
2013-01-02 04:28:00,9.0,8.0,29.92,South,180,10.0,12.0,85,0.00,,,0.00,Rainwise IP-100,2013-01-02 09:28:00,
2013-01-02 04:33:00,9.0,8.0,29.92,SSW,202,10.0,13.0,86,0.00,,,0.00,Rainwise IP-100,2013-01-02 09:33:00,
2013-01-02 04:38:00,8.0,4.0,29.91,SSW,202,9.0,12.0,86,0.00,,,0.00,Rainwise IP-100,2013-01-02 09:38:00,
2013-01-02 04:43:00,8.0,4.0,29.91,SSW,202,10.0,10.0,87,0.00,,,0.00,Rainwise IP-100,2013-01-02 09:43:00,
2013-01-02 04:48:00,9.0,8.0,29.91,SSW,202,12.0,14.0,87,0.00,,,0.00,Rainwise IP-100,2013-01-02 09:48:00,
2013-01-02 04:53:00,8.0,4.0,29.91,SSW,202,10.0,13.0,88,0.00,,,0.00,Rainwise IP-100,2013-01-02 09:53:00,
2013-01-02 04:58:00,9.0,8.0,29.90,SSW,202,10.0,12.0,87,0.00,,,0.00,Rainwise IP-100,2013-01-02 09:58:00,
2013-01-02 05:03:00,9.0,8.0,29.90,SSW,202,10.0,12.0,87,0.00,,,0.00,Rainwise IP-100,2013-01-02 10:03:00,
2013-01-02 05:08:00,9.0,8.0,29.90,SW,225,9.0,12.0,86,0.00,,,0.00,Rainwise IP-100,2013-01-02 10:08:00,
2013-01-02 05:13:00,9.0,8.0,29.90,SSW,202,10.0,12.0,86,0.00,,,0.00,Rainwise IP-100,2013-01-02 10:13:00,
2013-01-02 05:18:00,9.0,8.0,29.90,SW,225,8.0,12.0,86,0.00,,,0.00,Rainwise IP-100,2013-01-02 10:18:00,
2013-01-02 05:23:00,9.0,8.0,29.90,SW,225,9.0,12.0,86,0.00,,,0.00,Rainwise IP-100,2013-01-02 10:23:00,
2013-01-02 05:28:00,9.0,8.0,29.90,SSW,202,9.0,11.0,86,0.00,,,0.00,Rainwise IP-100,2013-01-02 10:28:00,
2013-01-02 05:33:00,9.0,8.0,29.90,SW,225,8.0,12.0,86,0.00,,,0.00,Rainwise IP-100,2013-01-02 10:33:00,
2013-01-02 05:38:00,9.0,8.0,29.90,SW,225,12.0,13.0,85,0.00,,,0.00,Rainwise IP-100,2013-01-02 10:38:00,
2013-01-02 05:43:00,9.0,8.0,29.90,SW,225,9.0,14.0,86,0.00,,,0.00,Rainwise IP-100,2013-01-02 10:43:00,
2013-01-02 05:48:00,9.0,8.0,29.90,SSW,202,6.0,16.0,85,0.00,,,0.00,Rainwise IP-100,2013-01-02 10:48:00,
2013-01-02 05:53:00,9.0,8.0,29.90,SW,225,8.0,13.0,85,0.00,,,0.00,Rainwise IP-100,2013-01-02 10:53:00,
2013-01-02 05:58:00,9.0,8.0,29.90,South,180,8.0,11.0,86,0.00,,,0.00,Rainwise IP-100,2013-01-02 10:58:00,
2013-01-02 06:03:00,9.0,8.0,29.90,SW,225,6.0,10.0,86,0.00,,,0.00,Rainwise IP-100,2013-01-02 11:03:00,
2013-01-02 06:08:00,9.0,8.0,29.89,SSW,202,7.0,9.0,87,0.00,,,0.00,Rainwise IP-100,2013-01-02 11:08:00,
2013-01-02 06:13:00,9.0,8.0,29.89,SW,225,10.0,13.0,86,0.00,,,0.00,Rainwise IP-100,2013-01-02 11:13:00,
2013-01-02 06:18:00,9.0,8.0,29.89,South,180,11.0,14.0,87,0.00,,,0.00,Rainwise IP-100,2013-01-02 11:18:00,
2013-01-02 06:23:00,9.0,8.0,29.89,SSE,157,10.0,13.0,86,0.00,,,0.00,Rainwise IP-100,2013-01-02 11:23:00,
2013-01-02 06:28:00,10.0,8.0,29.89,South,180,11.0,13.0,89,0.00,,,0.00,Rainwise IP-100,2013-01-02 11:28:00,
2013-01-02 06:33:00,10.0,8.0,29.89,South,180,8.0,13.0,90,0.00,,,0.00,Rainwise IP-100,2013-01-02 11:33:00,
2013-01-02 06:38:00,10.0,8.0,29.88,SW,225,8.0,10.0,90,0.00,,,0.00,Rainwise IP-100,2013-01-02 11:38:00,
2013-01-02 06:43:00,10.0,8.0,29.88,South,180,9.0,10.0,91,0.00,,,0.00,Rainwise IP-100,2013-01-02 11:43:00,
2013-01-02 06:48:00,10.0,8.0,29.88,South,180,9.0,12.0,92,0.00,,,0.00,Rainwise IP-100,2013-01-02 11:48:00,
2013-01-02 06:53:00,10.0,11.0,29.88,South,180,7.0,15.0,93,0.00,,,0.00,Rainwise IP-100,2013-01-02 11:53:00,
2013-01-02 06:58:00,10.0,8.0,29.89,South,180,10.0,11.0,92,0.00,,,0.00,Rainwise IP-100,2013-01-02 11:58:00,
2013-01-02 07:03:00,10.0,8.0,29.89,South,180,9.0,12.0,92,0.00,,,0.00,Rainwise IP-100,2013-01-02 12:03:00,
2013-01-02 07:08:00,11.0,8.0,29.88,South,180,9.0,11.0,92,0.00,,,0.00,Rainwise IP-100,2013-01-02 12:08:00,
2013-01-02 07:13:00,11.0,11.0,29.88,SE,135,4.0,13.0,93,0.00,,,0.00,Rainwise IP-100,2013-01-02 12:13:00,
2013-01-02 07:18:00,11.0,11.0,29.88,SSE,157,9.0,11.0,93,0.00,,,0.00,Rainwise IP-100,2013-01-02 12:18:00,
2013-01-02 07:23:00,11.0,11.0,29.88,South,180,9.0,14.0,93,0.00,,,0.00,Rainwise IP-100,2013-01-02 12:23:00,
2013-01-02 07:28:00,11.0,11.0,29.89,South,180,6.0,13.0,93,0.00,,,0.00,Rainwise IP-100,2013-01-02 12:28:00,
2013-01-02 07:33:00,11.0,11.0,29.89,South,180,7.0,10.0,93,0.00,,,0.00,Rainwise IP-100,2013-01-02 12:33:00,
2013-01-02 07:38:00,11.0,11.0,29.88,SSW,202,6.0,9.0,93,0.00,,,0.00,Rainwise IP-100,2013-01-02 12:38:00,
2013-01-02 07:43:00,12.0,11.0,29.88,SSE,157,9.0,10.0,93,0.00,,,0.00,Rainwise IP-100,2013-01-02 12:43:00,
2013-01-02 07:48:00,12.0,11.0,29.88,SSW,202,9.0,12.0,93,0.00,,,0.00,Rainwise IP-100,2013-01-02 12:48:00,
2013-01-02 07:53:00,12.0,11.0,29.88,South,180,7.0,10.0,93,0.00,,,0.00,Rainwise IP-100,2013-01-02 12:53:00,
2013-01-02 07:58:00,12.0,11.0,29.89,SSE,157,8.0,12.0,93,0.00,,,0.00,Rainwise IP-100,2013-01-02 12:58:00,
2013-01-02 08:03:00,12.0,11.0,29.89,SSE,157,9.0,9.0,93,0.00,,,0.00,Rainwise IP-100,2013-01-02 13:03:00,
2013-01-02 08:08:00,12.0,11.0,29.89,South,180,7.0,10.0,93,0.00,,,0.00,Rainwise IP-100,2013-01-02 13:08:00,
2013-01-02 08:13:00,12.0,11.0,29.89,SSE,157,8.0,9.0,93,0.00,,,0.00,Rainwise IP-100,2013-01-02 13:13:00,
2013-01-02 08:18:00,12.0,11.0,29.89,SE,135,2.0,17.0,93,0.00,,,0.00,Rainwise IP-100,2013-01-02 13:18:00,
2013-01-02 08:23:00,12.0,11.0,29.89,South,180,9.0,9.0,93,0.00,,,0.00,Rainwise IP-100,2013-01-02 13:23:00,
2013-01-02 08:28:00,12.0,11.0,29.90,SW,225,9.0,11.0,93,0.00,,,0.00,Rainwise IP-100,2013-01-02 13:28:00,
2013-01-02 08:33:00,13.0,11.0,29.90,NNW,337,5.0,11.0,91,0.00,,,0.00,Rainwise IP-100,2013-01-02 13:33:00,
2013-01-02 08:38:00,13.0,11.0,29.90,North,360,6.0,7.0,88,0.00,,,0.00,Rainwise IP-100,2013-01-02 13:38:00,
2013-01-02 08:43:00,14.0,11.0,29.90,NW,315,6.0,10.0,87,0.00,,,0.00,Rainwise IP-100,2013-01-02 13:43:00,
2013-01-02 08:48:00,14.0,11.0,29.90,North,360,9.0,9.0,88,0.00,,,0.00,Rainwise IP-100,2013-01-02 13:48:00,
2013-01-02 08:53:00,14.0,11.0,29.90,WNW,292,12.0,12.0,89,0.00,,,0.00,Rainwise IP-100,2013-01-02 13:53:00,
2013-01-02 08:58:00,14.0,11.0,29.91,NE,45,6.0,13.0,90,0.00,,,0.00,Rainwise IP-100,2013-01-02 13:58:00,
2013-01-02 09:03:00,13.0,11.0,29.91,NE,45,5.0,10.0,92,0.00,,,0.00,Rainwise IP-100,2013-01-02 14:03:00,
2013-01-02 09:08:00,13.0,11.0,29.92,NW,315,4.0,6.0,90,0.00,,,0.00,Rainwise IP-100,2013-01-02 14:08:00,
2013-01-02 09:13:00,14.0,11.0,29.92,NW,315,9.0,10.0,88,0.00,,,0.00,Rainwise IP-100,2013-01-02 14:13:00,
2013-01-02 09:18:00,14.0,11.0,29.93,NNW,337,8.0,10.0,89,0.00,,,0.00,Rainwise IP-100,2013-01-02 14:18:00,
2013-01-02 09:23:00,14.0,11.0,29.93,NW,315,12.0,12.0,88,0.00,,,0.00,Rainwise IP-100,2013-01-02 14:23:00,
2013-01-02 09:28:00,14.0,11.0,29.93,NW,315,7.0,13.0,89,0.00,,,0.00,Rainwise IP-100,2013-01-02 14:28:00,
2013-01-02 09:33:00,14.0,11.0,29.93,NW,315,5.0,8.0,90,0.00,,,0.00,Rainwise IP-100,2013-01-02 14:33:00,
2013-01-02 09:38:00,14.0,11.0,29.94,NNW,337,5.0,8.0,90,0.00,,,0.00,Rainwise IP-100,2013-01-02 14:38:00,
2013-01-02 09:43:00,13.0,11.0,29.94,NW,315,7.0,13.0,89,0.00,,,0.00,Rainwise IP-100,2013-01-02 14:43:00,
2013-01-02 09:48:00,13.0,11.0,29.94,North,360,6.0,12.0,87,0.00,,,0.00,Rainwise IP-100,2013-01-02 14:48:00,
2013-01-02 09:53:00,13.0,11.0,29.94,NW,315,9.0,15.0,88,0.00,,,0.00,Rainwise IP-100,2013-01-02 14:53:00,
2013-01-02 09:58:00,13.0,11.0,29.96,North,360,6.0,15.0,90,0.00,,,0.00,Rainwise IP-100,2013-01-02 14:58:00,
2013-01-02 10:03:00,13.0,11.0,29.96,NW,315,9.0,9.0,89,0.00,,,0.00,Rainwise IP-100,2013-01-02 15:03:00,
2013-01-02 10:08:00,13.0,11.0,29.96,NNW,337,5.0,12.0,91,0.00,,,0.00,Rainwise IP-100,2013-01-02 15:08:00,
2013-01-02 10:13:00,13.0,11.0,29.96,NW,315,10.0,10.0,89,0.00,,,0.00,Rainwise IP-100,2013-01-02 15:13:00,
2013-01-02 10:18:00,13.0,11.0,29.96,NNW,337,8.0,15.0,85,0.00,,,0.00,Rainwise IP-100,2013-01-02 15:18:00,
2013-01-02 10:23:00,13.0,11.0,29.96,North,360,9.0,19.0,85,0.00,,,0.00,Rainwise IP-100,2013-01-02 15:23:00,
2013-01-02 10:28:00,13.0,11.0,29.96,NW,315,9.0,19.0,86,0.00,,,0.00,Rainwise IP-100,2013-01-02 15:28:00,
2013-01-02 10:33:00,13.0,11.0,29.96,NNW,337,7.0,13.0,84,0.00,,,0.00,Rainwise IP-100,2013-01-02 15:33:00,
2013-01-02 10:38:00,13.0,11.0,29.96,North,360,10.0,13.0,83,0.00,,,0.00,Rainwise IP-100,2013-01-02 15:38:00,
2013-01-02 10:43:00,13.0,11.0,29.96,North,360,12.0,16.0,84,0.00,,,0.00,Rainwise IP-100,2013-01-02 15:43:00,
2013-01-02 10:48:00,12.0,11.0,29.96,NNE,22,8.0,17.0,84,0.00,,,0.00,Rainwise IP-100,2013-01-02 15:48:00,
2013-01-02 10:53:00,13.0,11.0,29.96,NW,315,9.0,17.0,84,0.00,,,0.00,Rainwise IP-100,2013-01-02 15:53:00,
2013-01-02 10:58:00,13.0,11.0,29.97,NNE,22,7.0,17.0,85,0.00,,,0.00,Rainwise IP-100,2013-01-02 15:58:00,
2013-01-02 11:03:00,12.0,11.0,29.97,North,360,9.0,16.0,85,0.00,,,0.00,Rainwise IP-100,2013-01-02 16:03:00,
2013-01-02 11:08:00,11.0,8.0,29.98,NNW,337,20.0,22.0,85,0.00,,,0.00,Rainwise IP-100,2013-01-02 16:08:00,
2013-01-02 11:13:00,11.0,8.0,29.98,North,360,12.0,24.0,86,0.00,,,0.00,Rainwise IP-100,2013-01-02 16:13:00,
2013-01-02 11:18:00,11.0,8.0,29.98,NNW,337,13.0,20.0,85,0.00,,,0.00,Rainwise IP-100,2013-01-02 16:18:00,
2013-01-02 11:23:00,11.0,8.0,29.98,NNW,337,7.0,15.0,83,0.00,,,0.00,Rainwise IP-100,2013-01-02 16:23:00,
2013-01-02 11:28:00,10.0,8.0,29.99,NNW,337,16.0,20.0,82,0.00,,,0.00,Rainwise IP-100,2013-01-02 16:28:00,
2013-01-02 11:33:00,10.0,8.0,29.99,North,360,10.0,21.0,82,0.00,,,0.00,Rainwise IP-100,2013-01-02 16:33:00,
2013-01-02 11:38:00,10.0,8.0,29.99,NW,315,18.0,25.0,81,0.00,,,0.00,Rainwise IP-100,2013-01-02 16:38:00,
2013-01-02 11:43:00,10.0,8.0,29.99,NE,45,7.0,25.0,82,0.00,,,0.00,Rainwise IP-100,2013-01-02 16:43:00,
2013-01-02 11:48:00,10.0,8.0,29.99,NNE,22,9.0,17.0,80,0.00,,,0.00,Rainwise IP-100,2013-01-02 16:48:00,
2013-01-02 11:53:00,10.0,8.0,29.99,NNW,337,8.0,11.0,81,0.00,,,0.00,Rainwise IP-100,2013-01-02 16:53:00,
2013-01-02 11:58:00,10.0,8.0,30.00,North,360,4.0,12.0,82,0.00,,,0.00,Rainwise IP-100,2013-01-02 16:58:00,
2013-01-02 12:03:00,9.0,8.0,30.00,North,360,7.0,21.0,80,0.00,,,0.00,Rainwise IP-100,2013-01-02 17:03:00,
2013-01-02 12:08:00,10.0,8.0,30.00,NW,315,8.0,20.0,79,0.00,,,0.00,Rainwise IP-100,2013-01-02 17:08:00,
2013-01-02 12:13:00,10.0,8.0,30.00,NNW,337,11.0,14.0,79,0.00,,,0.00,Rainwise IP-100,2013-01-02 17:13:00,
2013-01-02 12:18:00,10.0,8.0,30.00,NNE,22,5.0,17.0,81,0.00,,,0.00,Rainwise IP-100,2013-01-02 17:18:00,
2013-01-02 12:23:00,10.0,8.0,30.00,North,360,3.0,10.0,79,0.00,,,0.00,Rainwise IP-100,2013-01-02 17:23:00,
2013-01-02 12:28:00,10.0,4.0,29.99,NNW,337,16.0,16.0,77,0.00,,,0.00,Rainwise IP-100,2013-01-02 17:28:00,
2013-01-02 12:33:00,10.0,4.0,29.99,NNW,337,13.0,16.0,78,0.00,,,0.00,Rainwise IP-100,2013-01-02 17:33:00,
2013-01-02 12:38:00,10.0,4.0,30.00,North,360,3.0,15.0,77,0.00,,,0.00,Rainwise IP-100,2013-01-02 17:38:00,
2013-01-02 12:43:00,11.0,4.0,30.00,North,360,6.0,12.0,75,0.00,,,0.00,Rainwise IP-100,2013-01-02 17:43:00,
2013-01-02 12:48:00,11.0,4.0,30.00,NNE,22,5.0,8.0,75,0.00,,,0.00,Rainwise IP-100,2013-01-02 17:48:00,
2013-01-02 12:53:00,10.0,4.0,30.00,NNW,337,12.0,14.0,75,0.00,,,0.00,Rainwise IP-100,2013-01-02 17:53:00,
2013-01-02 12:58:00,10.0,4.0,30.01,NNE,22,1.0,15.0,75,0.00,,,0.00,Rainwise IP-100,2013-01-02 17:58:00,
2013-01-02 13:03:00,11.0,4.0,30.01,NW,315,9.0,11.0,74,0.00,,,0.00,Rainwise IP-100,2013-01-02 18:03:00,
2013-01-02 13:08:00,10.0,4.0,30.01,NNE,22,6.0,13.0,77,0.00,,,0.00,Rainwise IP-100,2013-01-02 18:08:00,
2013-01-02 13:13:00,11.0,4.0,30.01,North,360,4.0,11.0,74,0.00,,,0.00,Rainwise IP-100,2013-01-02 18:13:00,
2013-01-02 13:18:00,11.0,4.0,30.00,NW,315,8.0,10.0,73,0.00,,,0.00,Rainwise IP-100,2013-01-02 18:18:00,
2013-01-02 13:23:00,10.0,4.0,30.00,NE,45,8.0,10.0,74,0.00,,,0.00,Rainwise IP-100,2013-01-02 18:23:00,
2013-01-02 13:28:00,9.0,4.0,30.01,East,90,6.0,12.0,75,0.00,,,0.00,Rainwise IP-100,2013-01-02 18:28:00,
2013-01-02 13:33:00,9.0,4.0,30.01,NE,45,11.0,11.0,75,0.00,,,0.00,Rainwise IP-100,2013-01-02 18:33:00,
2013-01-02 13:38:00,8.0,4.0,30.01,NE,45,10.0,12.0,78,0.00,,,0.00,Rainwise IP-100,2013-01-02 18:38:00,
2013-01-02 13:43:00,9.0,4.0,30.01,NE,45,6.0,12.0,78,0.00,,,0.00,Rainwise IP-100,2013-01-02 18:43:00,
2013-01-02 13:48:00,8.0,4.0,30.03,ENE,67,9.0,13.0,76,0.00,,,0.00,Rainwise IP-100,2013-01-02 18:48:00,
2013-01-02 13:53:00,8.0,4.0,30.03,NE,45,10.0,13.0,75,0.00,,,0.00,Rainwise IP-100,2013-01-02 18:53:00,
2013-01-02 13:58:00,8.0,4.0,30.03,NE,45,6.0,15.0,76,0.00,,,0.00,Rainwise IP-100,2013-01-02 18:58:00,
2013-01-02 14:03:00,7.0,4.0,30.03,NNE,22,7.0,15.0,76,0.00,,,0.00,Rainwise IP-100,2013-01-02 19:03:00,
2013-01-02 14:08:00,8.0,4.0,30.03,NNE,22,7.0,13.0,75,0.00,,,0.00,Rainwise IP-100,2013-01-02 19:08:00,
2013-01-02 14:13:00,8.0,4.0,30.03,NE,45,8.0,10.0,75,0.00,,,0.00,Rainwise IP-100,2013-01-02 19:13:00,
2013-01-02 14:18:00,8.0,4.0,30.04,North,360,7.0,16.0,76,0.00,,,0.00,Rainwise IP-100,2013-01-02 19:18:00,
2013-01-02 14:23:00,8.0,4.0,30.04,NNE,22,6.0,10.0,76,0.00,,,0.00,Rainwise IP-100,2013-01-02 19:23:00,
2013-01-02 14:28:00,7.0,4.0,30.06,North,360,8.0,13.0,76,0.00,,,0.00,Rainwise IP-100,2013-01-02 19:28:00,
2013-01-02 14:33:00,7.0,4.0,30.06,North,360,7.0,14.0,76,0.00,,,0.00,Rainwise IP-100,2013-01-02 19:33:00,
2013-01-02 14:38:00,6.0,4.0,30.07,North,360,7.0,11.0,78,0.00,,,0.00,Rainwise IP-100,2013-01-02 19:38:00,
2013-01-02 14:43:00,6.0,4.0,30.07,NNW,337,3.0,12.0,78,0.00,,,0.00,Rainwise IP-100,2013-01-02 19:43:00,
2013-01-02 14:48:00,6.0,4.0,30.07,North,360,9.0,15.0,78,0.00,,,0.00,Rainwise IP-100,2013-01-02 19:48:00,
2013-01-02 14:53:00,5.0,4.0,30.07,WNW,292,7.0,17.0,78,0.00,,,0.00,Rainwise IP-100,2013-01-02 19:53:00,
2013-01-02 14:58:00,5.0,4.0,30.08,North,360,13.0,16.0,78,0.00,,,0.00,Rainwise IP-100,2013-01-02 19:58:00,
2013-01-02 15:03:00,5.0,4.0,30.08,North,360,9.0,24.0,77,0.00,,,0.00,Rainwise IP-100,2013-01-02 20:03:00,
2013-01-02 15:08:00,5.0,4.0,30.09,NW,315,10.0,18.0,77,0.00,,,0.00,Rainwise IP-100,2013-01-02 20:08:00,
2013-01-02 15:13:00,4.0,0.0,30.09,NNW,337,13.0,14.0,77,0.00,,,0.00,Rainwise IP-100,2013-01-02 20:13:00,
2013-01-02 15:18:00,4.0,0.0,30.10,North,360,10.0,16.0,76,0.00,,,0.00,Rainwise IP-100,2013-01-02 20:18:00,
2013-01-02 15:23:00,4.0,0.0,30.10,NW,315,9.0,14.0,76,0.00,,,0.00,Rainwise IP-100,2013-01-02 20:23:00,
2013-01-02 15:28:00,4.0,0.0,30.09,NNW,337,11.0,16.0,77,0.00,,,0.00,Rainwise IP-100,2013-01-02 20:28:00,
2013-01-02 15:33:00,4.0,0.0,30.09,NW,315,11.0,19.0,76,0.00,,,0.00,Rainwise IP-100,2013-01-02 20:33:00,
2013-01-02 15:38:00,4.0,0.0,30.10,NNW,337,13.0,22.0,74,0.00,,,0.00,Rainwise IP-100,2013-01-02 20:38:00,
2013-01-02 15:43:00,3.0,0.0,30.10,NNW,337,12.0,20.0,75,0.00,,,0.00,Rainwise IP-100,2013-01-02 20:43:00,
2013-01-02 15:48:00,3.0,0.0,30.11,NW,315,14.0,21.0,74,0.00,,,0.00,Rainwise IP-100,2013-01-02 20:48:00,
2013-01-02 15:53:00,3.0,0.0,30.11,North,360,10.0,19.0,75,0.00,,,0.00,Rainwise IP-100,2013-01-02 20:53:00,
2013-01-02 15:58:00,3.0,0.0,30.11,NNW,337,13.0,18.0,75,0.00,,,0.00,Rainwise IP-100,2013-01-02 20:58:00,
2013-01-02 16:03:00,3.0,0.0,30.11,NNW,337,12.0,22.0,75,0.00,,,0.00,Rainwise IP-100,2013-01-02 21:03:00,
2013-01-02 16:08:00,2.0,0.0,30.13,NNW,337,13.0,20.0,76,0.00,,,0.00,Rainwise IP-100,2013-01-02 21:08:00,
2013-01-02 16:13:00,2.0,0.0,30.13,NNE,22,8.0,18.0,76,0.00,,,0.00,Rainwise IP-100,2013-01-02 21:13:00,
2013-01-02 16:18:00,2.0,0.0,30.13,NNW,337,10.0,20.0,77,0.00,,,0.00,Rainwise IP-100,2013-01-02 21:18:00,
2013-01-02 16:23:00,2.0,0.0,30.13,NNW,337,7.0,14.0,79,0.00,,,0.00,Rainwise IP-100,2013-01-02 21:23:00,
2013-01-02 16:28:00,1.0,0.0,30.14,NE,45,6.0,12.0,79,0.00,,,0.00,Rainwise IP-100,2013-01-02 21:28:00,
2013-01-02 16:33:00,1.0,0.0,30.14,NNW,337,10.0,14.0,80,0.00,,,0.00,Rainwise IP-100,2013-01-02 21:33:00,
2013-01-02 16:38:00,1.0,0.0,30.14,North,360,7.0,13.0,83,0.00,,,0.00,Rainwise IP-100,2013-01-02 21:38:00,
2013-01-02 16:43:00,0.0,-6.0,30.14,NNW,337,7.0,12.0,81,0.00,,,0.00,Rainwise IP-100,2013-01-02 21:43:00,
2013-01-02 16:48:00,0.0,-6.0,30.16,North,360,7.0,11.0,81,0.00,,,0.00,Rainwise IP-100,2013-01-02 21:48:00,
2013-01-02 16:53:00,0.0,-6.0,30.16,North,360,7.0,9.0,82,0.00,,,0.00,Rainwise IP-100,2013-01-02 21:53:00,
2013-01-02 16:58:00,0.0,-6.0,30.16,North,360,5.0,11.0,82,0.00,,,0.00,Rainwise IP-100,2013-01-02 21:58:00,
2013-01-02 17:03:00,0.0,-6.0,30.16,NNE,22,6.0,9.0,83,0.00,,,0.00,Rainwise IP-100,2013-01-02 22:03:00,
2013-01-02 17:08:00,0.0,-6.0,30.17,NE,45,13.0,14.0,81,0.00,,,0.00,Rainwise IP-100,2013-01-02 22:08:00,
2013-01-02 17:13:00,0.0,-6.0,30.17,North,360,19.0,19.0,81,0.00,,,0.00,Rainwise IP-100,2013-01-02 22:13:00,
2013-01-02 17:18:00,-1.0,-6.0,30.17,North,360,7.0,20.0,82,0.00,,,0.00,Rainwise IP-100,2013-01-02 22:18:00,
2013-01-02 17:23:00,-1.0,-6.0,30.17,NNW,337,10.0,16.0,81,0.00,,,0.00,Rainwise IP-100,2013-01-02 22:23:00,
2013-01-02 17:28:00,-1.0,-6.0,30.17,NW,315,9.0,13.0,82,0.00,,,0.00,Rainwise IP-100,2013-01-02 22:28:00,
2013-01-02 17:33:00,-1.0,-6.0,30.17,NNW,337,7.0,15.0,82,0.00,,,0.00,Rainwise IP-100,2013-01-02 22:33:00,
2013-01-02 17:38:00,-1.0,-6.0,30.17,NW,315,16.0,16.0,80,0.00,,,0.00,Rainwise IP-100,2013-01-02 22:38:00,
2013-01-02 17:43:00,-1.0,-6.0,30.17,North,360,10.0,17.0,78,0.00,,,0.00,Rainwise IP-100,2013-01-02 22:43:00,
2013-01-02 17:48:00,-1.0,-6.0,30.17,NW,315,5.0,13.0,79,0.00,,,0.00,Rainwise IP-100,2013-01-02 22:48:00,
2013-01-02 17:53:00,-1.0,-6.0,30.17,NNE,22,5.0,9.0,80,0.00,,,0.00,Rainwise IP-100,2013-01-02 22:53:00,
2013-01-02 17:58:00,-2.0,-6.0,30.19,North,360,5.0,11.0,79,0.00,,,0.00,Rainwise IP-100,2013-01-02 22:58:00,
2013-01-02 18:03:00,-2.0,-6.0,30.19,North,360,7.0,12.0,79,0.00,,,0.00,Rainwise IP-100,2013-01-02 23:03:00,
2013-01-02 18:08:00,-2.0,-6.0,30.18,East,90,7.0,12.0,79,0.00,,,0.00,Rainwise IP-100,2013-01-02 23:08:00,
2013-01-02 18:13:00,-2.0,-6.0,30.18,North,360,8.0,9.0,82,0.00,,,0.00,Rainwise IP-100,2013-01-02 23:13:00,
2013-01-02 18:18:00,-2.0,-6.0,30.18,NNE,22,6.0,10.0,81,0.00,,,0.00,Rainwise IP-100,2013-01-02 23:18:00,
2013-01-02 18:23:00,-3.0,-6.0,30.18,North,360,6.0,7.0,82,0.00,,,0.00,Rainwise IP-100,2013-01-02 23:23:00,
2013-01-02 18:28:00,-3.0,-6.0,30.19,North,360,3.0,10.0,81,0.00,,,0.00,Rainwise IP-100,2013-01-02 23:28:00,
2013-01-02 18:33:00,-3.0,-6.0,30.19,ENE,67,6.0,9.0,82,0.00,,,0.00,Rainwise IP-100,2013-01-02 23:33:00,
2013-01-02 18:38:00,-3.0,-6.0,30.20,ENE,67,3.0,9.0,82,0.00,,,0.00,Rainwise IP-100,2013-01-02 23:38:00,
2013-01-02 18:43:00,-3.0,-6.0,30.20,North,360,4.0,6.0,82,0.00,,,0.00,Rainwise IP-100,2013-01-02 23:43:00,
2013-01-02 18:48:00,-3.0,-6.0,30.21,NNW,337,4.0,8.0,83,0.00,,,0.00,Rainwise IP-100,2013-01-02 23:48:00,
2013-01-02 18:53:00,-4.0,-6.0,30.21,ENE,67,6.0,8.0,82,0.00,,,0.00,Rainwise IP-100,2013-01-02 23:53:00,
2013-01-02 18:58:00,-4.0,-6.0,30.23,NE,45,5.0,7.0,87,0.00,,,0.00,Rainwise IP-100,2013-01-02 23:58:00,
2013-01-02 19:03:00,-4.0,-6.0,30.23,NNW,337,3.0,6.0,85,0.00,,,0.00,Rainwise IP-100,2013-01-03 00:03:00,
2013-01-02 19:08:00,-4.0,-6.0,30.22,NNW,337,6.0,10.0,82,0.00,,,0.00,Rainwise IP-100,2013-01-03 00:08:00,
2013-01-02 19:13:00,-4.0,-6.0,30.22,NNW,337,7.0,13.0,81,0.00,,,0.00,Rainwise IP-100,2013-01-03 00:13:00,
2013-01-02 19:18:00,-4.0,-6.0,30.22,NNW,337,2.0,12.0,81,0.00,,,0.00,Rainwise IP-100,2013-01-03 00:18:00,
2013-01-02 19:23:00,-4.0,-6.0,30.22,NNW,337,7.0,15.0,79,0.00,,,0.00,Rainwise IP-100,2013-01-03 00:23:00,
2013-01-02 19:28:00,-4.0,-6.0,30.23,NE,45,3.0,9.0,84,0.00,,,0.00,Rainwise IP-100,2013-01-03 00:28:00,
2013-01-02 19:33:00,-5.0,-6.0,30.23,NE,45,1.0,5.0,84,0.00,,,0.00,Rainwise IP-100,2013-01-03 00:33:00,
2013-01-02 19:38:00,-5.0,-6.0,30.23,NE,45,2.0,2.0,85,0.00,,,0.00,Rainwise IP-100,2013-01-03 00:38:00,
2013-01-02 19:43:00,-6.0,-6.0,30.23,NE,45,0.0,3.0,86,0.00,,,0.00,Rainwise IP-100,2013-01-03 00:43:00,
2013-01-02 19:48:00,-7.0,-6.0,30.26,NE,45,0.0,2.0,88,0.00,,,0.00,Rainwise IP-100,2013-01-03 00:48:00,
2013-01-02 19:53:00,-7.0,-6.0,30.26,NE,45,0.0,3.0,89,0.00,,,0.00,Rainwise IP-100,2013-01-03 00:53:00,
2013-01-02 19:58:00,-7.0,-6.0,30.26,NE,45,0.0,2.0,89,0.00,,,0.00,Rainwise IP-100,2013-01-03 00:58:00,
2013-01-02 20:03:00,-8.0,-6.0,30.27,East,90,0.0,5.0,90,0.00,,,0.00,Rainwise IP-100,2013-01-03 01:03:00,
2013-01-02 20:08:00,-8.0,-6.0,30.26,East,90,0.0,0.0,90,0.00,,,0.00,Rainwise IP-100,2013-01-03 01:08:00,
2013-01-02 20:13:00,-8.0,-6.0,30.26,East,90,2.0,2.0,90,0.00,,,0.00,Rainwise IP-100,2013-01-03 01:13:00,
2013-01-02 20:18:00,-8.0,-6.0,30.25,East,90,0.0,2.0,90,0.00,,,0.00,Rainwise IP-100,2013-01-03 01:18:00,
2013-01-02 20:23:00,-7.0,-6.0,30.25,East,90,0.0,0.0,90,0.00,,,0.00,Rainwise IP-100,2013-01-03 01:23:00,
2013-01-02 20:28:00,-7.0,-6.0,30.24,East,90,0.0,1.0,90,0.00,,,0.00,Rainwise IP-100,2013-01-03 01:28:00,
2013-01-02 20:33:00,-7.0,-6.0,30.24,NE,45,0.0,5.0,90,0.00,,,0.00,Rainwise IP-100,2013-01-03 01:33:00,
2013-01-02 20:38:00,-8.0,-6.0,30.25,ENE,67,2.0,2.0,89,0.00,,,0.00,Rainwise IP-100,2013-01-03 01:38:00,
2013-01-02 20:43:00,-9.0,-6.0,30.25,ENE,67,1.0,3.0,90,0.00,,,0.00,Rainwise IP-100,2013-01-03 01:43:00,
2013-01-02 20:48:00,-8.0,-6.0,30.27,East,90,1.0,2.0,90,0.00,,,0.00,Rainwise IP-100,2013-01-03 01:48:00,
2013-01-02 20:53:00,-8.0,-6.0,30.27,SE,135,6.0,6.0,90,0.00,,,0.00,Rainwise IP-100,2013-01-03 01:53:00,
2013-01-02 20:58:00,-8.0,-6.0,30.27,SE,135,6.0,6.0,90,0.00,,,0.00,Rainwise IP-100,2013-01-03 01:58:00,
2013-01-02 21:03:00,-8.0,-6.0,30.27,SSE,157,5.0,7.0,90,0.00,,,0.00,Rainwise IP-100,2013-01-03 02:03:00,
2013-01-02 21:08:00,-8.0,-6.0,30.29,South,180,6.0,7.0,89,0.00,,,0.00,Rainwise IP-100,2013-01-03 02:08:00,
2013-01-02 21:13:00,-8.0,-6.0,30.29,South,180,4.0,7.0,90,0.00,,,0.00,Rainwise IP-100,2013-01-03 02:13:00,
2013-01-02 21:18:00,-9.0,-6.0,30.31,SSE,157,6.0,7.0,90,0.00,,,0.00,Rainwise IP-100,2013-01-03 02:18:00,
2013-01-02 21:23:00,-9.0,-6.0,30.31,SSE,157,6.0,7.0,90,0.00,,,0.00,Rainwise IP-100,2013-01-03 02:23:00,
2013-01-02 21:28:00,-9.0,-6.0,30.31,SE,135,6.0,7.0,90,0.00,,,0.00,Rainwise IP-100,2013-01-03 02:28:00,
2013-01-02 21:33:00,-8.0,-6.0,30.31,SSE,157,6.0,7.0,90,0.00,,,0.00,Rainwise IP-100,2013-01-03 02:33:00,
2013-01-02 21:38:00,-9.0,-6.0,30.31,SSE,157,6.0,7.0,89,0.00,,,0.00,Rainwise IP-100,2013-01-03 02:38:00,
2013-01-02 21:43:00,-9.0,-6.0,30.31,SE,135,7.0,7.0,90,0.00,,,0.00,Rainwise IP-100,2013-01-03 02:43:00,
2013-01-02 21:48:00,-8.0,-6.0,30.32,SE,135,5.0,7.0,89,0.00,,,0.00,Rainwise IP-100,2013-01-03 02:48:00,
2013-01-02 21:53:00,-8.0,-6.0,30.32,SE,135,3.0,6.0,90,0.00,,,0.00,Rainwise IP-100,2013-01-03 02:53:00,
2013-01-02 21:58:00,-8.0,-6.0,30.32,SE,135,3.0,4.0,89,0.00,,,0.00,Rainwise IP-100,2013-01-03 02:58:00,
2013-01-02 22:03:00,-8.0,-6.0,30.32,SE,135,2.0,4.0,89,0.00,,,0.00,Rainwise IP-100,2013-01-03 03:03:00,
2013-01-02 22:08:00,-8.0,-6.0,30.34,SE,135,0.0,3.0,89,0.00,,,0.00,Rainwise IP-100,2013-01-03 03:08:00,
2013-01-02 22:13:00,-9.0,-6.0,30.34,SW,225,4.0,6.0,89,0.00,,,0.00,Rainwise IP-100,2013-01-03 03:13:00,
2013-01-02 22:18:00,-11.0,-6.0,30.36,SSE,157,9.0,11.0,88,0.00,,,0.00,Rainwise IP-100,2013-01-03 03:18:00,
2013-01-02 22:23:00,-11.0,-6.0,30.36,SSE,157,11.0,12.0,90,0.00,,,0.00,Rainwise IP-100,2013-01-03 03:23:00,
2013-01-02 22:28:00,-11.0,-6.0,30.37,SSE,157,7.0,12.0,90,0.00,,,0.00,Rainwise IP-100,2013-01-03 03:28:00,
2013-01-02 22:34:00,-9.0,-6.0,30.37,SE,135,7.0,11.0,89,0.00,,,0.00,Rainwise IP-100,2013-01-03 03:34:00,
2013-01-02 22:39:00,-9.0,-6.0,30.35,SSE,157,6.0,8.0,88,0.00,,,0.00,Rainwise IP-100,2013-01-03 03:39:00,
2013-01-02 22:44:00,-8.0,-6.0,30.35,SSE,157,7.0,9.0,88,0.00,,,0.00,Rainwise IP-100,2013-01-03 03:44:00,
2013-01-02 22:49:00,-8.0,-6.0,30.37,South,180,6.0,7.0,88,0.00,,,0.00,Rainwise IP-100,2013-01-03 03:49:00,
2013-01-02 22:54:00,-8.0,-6.0,30.37,SSE,157,7.0,7.0,86,0.00,,,0.00,Rainwise IP-100,2013-01-03 03:54:00,
2013-01-02 22:59:00,-11.0,-6.0,30.38,SSE,157,7.0,8.0,88,0.00,,,0.00,Rainwise IP-100,2013-01-03 03:59:00,
2013-01-02 23:04:00,-10.0,-6.0,30.38,SSE,157,7.0,9.0,90,0.00,,,0.00,Rainwise IP-100,2013-01-03 04:04:00,
2013-01-02 23:09:00,-9.0,-6.0,30.37,SSE,157,7.0,9.0,89,0.00,,,0.00,Rainwise IP-100,2013-01-03 04:09:00,
2013-01-02 23:14:00,-9.0,-6.0,30.37,SSE,157,6.0,8.0,88,0.00,,,0.00,Rainwise IP-100,2013-01-03 04:14:00,
2013-01-02 23:19:00,-9.0,-6.0,30.36,SSE,157,6.0,7.0,89,0.00,,,0.00,Rainwise IP-100,2013-01-03 04:19:00,
2013-01-02 23:24:00,-8.0,-6.0,30.36,SSE,157,3.0,7.0,88,0.00,,,0.00,Rainwise IP-100,2013-01-03 04:24:00,
2013-01-02 23:29:00,-9.0,-6.0,30.35,SSE,157,6.0,6.0,89,0.00,,,0.00,Rainwise IP-100,2013-01-03 04:29:00,
2013-01-02 23:34:00,-8.0,-6.0,30.35,SSE,157,6.0,6.0,87,0.00,,,0.00,Rainwise IP-100,2013-01-03 04:34:00,
2013-01-02 23:39:00,-9.0,-6.0,30.35,SSE,157,5.0,6.0,87,0.00,,,0.00,Rainwise IP-100,2013-01-03 04:39:00,
2013-01-02 23:44:00,-9.0,-6.0,30.35,SSE,157,0.0,6.0,87,0.00,,,0.00,Rainwise IP-100,2013-01-03 04:44:00,
2013-01-02 23:49:00,-11.0,-6.0,30.36,SW,225,5.0,6.0,86,0.00,,,0.00,Rainwise IP-100,2013-01-03 04:49:00,
2013-01-02 23:54:00,-11.0,-6.0,30.36,SSW,202,5.0,6.0,89,0.00,,,0.00,Rainwise IP-100,2013-01-03 04:54:00,
2013-01-02 23:59:00,-11.0,-6.0,30.37,South,180,3.0,5.0,89,0.00,,,0.00,Rainwise IP-100,2013-01-03 04:59:00,